Regional Weather Roundup
Issued by NWS Upton, NY

Current Version | Previous Version | Graphics & Text | Print | Product List | Glossary Off
Versions: 1 2 3 4 5 6 7 8 9 10 11 12 13 14 15 16 17 18 19 20 21 22 23 24 25 26 27 28 29 30 31 32 33 34 35 36 37 38 39 40 41 42 43 44 45 46 47 48 49 50

000
ASUS41 KOKX 061004
RWROKX

REGIONAL WEATHER ROUNDUP
NATIONAL WEATHER SERVICE NEW YORK NY
500 AM EST SAT FEB 06 2016

NOTE: "FAIR" INDICATES FEW OR NO CLOUDS BELOW 12,000 FEET WITH NO
SIGNIFICANT WEATHER AND/OR OBSTRUCTIONS TO VISIBILITY.

NYZ071-072-176-178-NJZ106-104-061100-
NEW YORK CITY METRO AREA


CITY           SKY/WX    TMP DP  RH WIND       PRES   REMARKS
CENTRAL PARK   CLOUDY    31  16  54 W6        30.40R WCI  25
LAGUARDIA APRT CLOUDY    33  18  53 NW9       30.38R WCI  25
KENNEDY INTL   CLOUDY    28  17  63 NW5       30.40R WCI  23
NEWARK/LIBERTY PTCLDY    28  17  63 W5        30.39R WCI  23
BRNX BOT. GARD   N/A     30  18  59 W6        30.38R WCI  24
TETERBORO      CLEAR     26  18  71 CALM      30.38R
$$

NYZ177-179-078>081-061100-
LONG ISLAND NEW YORK

CITY           SKY/WX    TMP DP  RH WIND       PRES   REMARKS
FARMINGDALE    PTCLDY    19  15  84 CALM      30.38R
ISLIP          CLOUDY    16  13  88 CALM      30.36R
SHIRLEY        CLOUDY    17  15  92 CALM      30.38R
RIVERHEAD        N/A     30  16  55 CALM      30.38R
WESTHAMPTON      N/A    N/A N/A N/A MISG      30.38R
EAST HAMPTON   FAIR      24  19  78 CALM      30.35R
MONTAUK POINT    N/A     31  17  56 N9        30.36R WCI  23
$$

NYZ052-065-067-061100-
HUDSON VALLEY

CITY           SKY/WX    TMP DP  RH WIND       PRES   REMARKS
WHITE PLAINS   PTCLDY    22  15  75 W3        30.34R
NEWBURGH       CLEAR     23  18  80 CALM      30.35R
MONTGOMERY     CLEAR     21  17  84 SW5       30.34R WCI  15
POUGHKEEPSIE   CLEAR     21  15  78 CALM      30.35R
ALBANY         CLEAR     23  15  71 S7        30.32S WCI  15
$$

NJZ001-105-106-008-010-013-015-019>022-104-061100-
NEW JERSEY

CITY           SKY/WX    TMP DP  RH WIND       PRES   REMARKS
NEWARK/LIBERTY PTCLDY    28  17  63 W5        30.39R WCI  23
TETERBORO      CLEAR     26  18  71 CALM      30.38R
CALDWELL       CLEAR     25  18  74 S5        30.39R WCI  19
MORRISTOWN     CLEAR     21  18  86 CALM      30.38R
SOMERVILLE     CLOUDY    19  15  84 CALM      30.38R
SUSSEX         CLEAR     20  15  81 CALM      30.35R
ANDOVER          N/A     20  17  88 S3        30.36R
TRENTON        CLOUDY    24  18  77 CALM      30.39R
MILLVILLE      CLOUDY    23  20  88 CALM      30.42R
ATLANTIC CITY  CLOUDY    24  20  84 CALM      30.42R
WRIGHTSTOWN    CLOUDY    21  20  99 S1        30.38R
TOMS RIVER     CLOUDY    19  16  86 CALM      30.41R
BELMAR         PTCLDY    25  12  58 W5        30.39R WCI  19
$$

PAZ047>061-062-071-061100-
EASTERN PENNSYLVANIA

CITY           SKY/WX    TMP DP  RH WIND       PRES   REMARKS
PHILADELPHIA   CLOUDY    27  19  72 SW5       30.42R WCI  22
ALLENTOWN      CLOUDY    23  16  74 CALM      30.37R
SCRANTON       CLEAR     22  16  78 CALM      30.32R
$$

CTZ002-004>006-009-010-012-RIZ004-006-007-MAZ004-011-015-061100-
SOUTHERN NEW ENGLAND
 IN CT

CITY           SKY/WX    TMP DP  RH WIND       PRES   REMARKS
BRADLEY INTL   CLOUDY    18  13  80 NW7       30.34R WCI   9
HARTFORD       CLOUDY    18  15  88 CALM      30.36R
DANBURY        CLEAR     13   8  81 CALM      30.35R
WTRBRY/OXFORD  PTCLDY    19   7  58 CALM      30.32R
BRIDGEPORT     CLOUDY    24  16  71 W3        30.37R
MERIDEN        CLOUDY    16  12  84 CALM      30.36R
NEW HAVEN      CLOUDY    17  10  74 CALM      30.36R
CHESTER        FAIR      27  18  69 NW5       30.33S WCI  21
GROTON         CLEAR     17  16  95 CALM      30.36R
WILLIMANTIC    CLOUDY    13   8  81 NE3       30.35R

 IN RI

CITY           SKY/WX    TMP DP  RH WIND       PRES   REMARKS
PROVIDENCE     CLOUDY    19  15  84 CALM      30.35R
BLOCK ISLAND   CLEAR     27  19  74 N6        30.33R WCI  20
WESTERLY       CLEAR     22  17  81 VRB3      30.34R

 IN MA

CITY           SKY/WX    TMP DP  RH WIND       PRES   REMARKS
BOSTON         CLEAR     25  15  66 W8        30.33R WCI  16
WORCESTER      CLOUDY    19  10  68 W10       30.27R WCI   7
WESTFIELD      CLOUDY    14  11  87 CALM      30.33R
PROVINCETOWN   CLEAR     27  20  75 NW13      30.32R WCI  16
NANTUCKET      CLEAR     29  22  75 NW12      30.32R WCI  19
$$

ANZ330-335-338-340-345-350-353-355-061100-
COASTAL MARINE OBSERVATIONS


STATION/POSITION TIME  SKY/WX   TEMP    WIND        PRES    VSBY  WAVE
                                AIR SEA DIR/SP/G                  HT/PER
                 (UTC)          (F)     (DEG/KT/KT) (MB)    (MI)  (FT/S)
NY HARB ENTRANCE 0850            35 44  320/ 10/ 14 1027.7          2/11
4S FIRE IS       NOT AVBL
20S FIRE ISLAND  0850            35 45  340/ 10/ 16 1027.7          3/10
GREAT SOUTH BAY  NOT AVBL
23SW MTP         0950            33 46  340/ 14/ 17 1027.3          4/10
HUDSON CANYON    0850            39 51              1027.4          6/ 6
KINGS POINT      0900            32 39   40/  4/  5 1027.7
EXECUTION ROCKS  NOT AVBL
CENTRAL LI SOUND 0900            32     340/ 10/ 14   N/A           1/ 3
EASTERN LI SOUND 0900            30 42  320/ 10/ 12   N/A
ROBBINS REEF     0900            31     280/  5/  6 1027.7
$$


>>>>>>>>>>>>>>>>>>>>>>>>>>>> KEY <<<<<<<<<<<<<<<<<<<<<<<<<<<
>                                                          <
>     SKY/WX - SKY CONDITION/PRESENT WEATHER               <
>     TMP    - TEMPERATURE IN FAHRENHEIT                   <
>     DP     - DEWPOINT IN FAHRENHEIT                      <
>     RH     - RELATIVE HUMIDITY IN PERCENT                <
>     WIND   - DIRECTION AND SPEED IN MPH                  <
>     PRES   - MEAN SEA LEVEL PRESSURE IN INCHES OF HG     <
>     WCI    - WIND CHILL INDEX                            <
>     VSB    - VISIBILITY IN MILES                         <
>     HX     - HEAT INDEX                                  <
>     TC     - TEMPERATURE IN CELSIUS                      <
>     VRB    - VARIABLE WIND DIRECTION                     <
>                                                          <
>>>>>>>>>>>>>>>>>>>>>>>>>>>> KEY <<<<<<<<<<<<<<<<<<<<<<<<<<<





USA.gov is the U.S. government's official web portal to all federal, state and local government web resources and services.